Overview Statistics Trail Chart Weather Telemetry Raw packets
 

This is the latest recevied weather packets stored in our database for station/object UIBB. If no packets are shown the sender has not sent any weather packets the latest 10 day(s).

<< 13 14 15 16 17 18 19 >>
Time Temp. Humidity Pressure Rain* Wind** Luminosity Snow
1788251626 15° C 72% 1014 hPa - - - -
1788251023 15° C 77% 1008 hPa - - - -
1788250424 15.56° C 72% 1007 hPa - - - -
1788249826 16.67° C 72% 1006 hPa - - - -
1788249229 16.67° C 72% 1006 hPa - - - -
1788248624 16.67° C 72% 1006 hPa - - - -
1788248025 17.78° C 67% 1006 hPa - - - -
1788247427 17.78° C 67% 1006 hPa - - - -
1788246823 17.78° C 67% 1006 hPa - - - -
1788246226 16.67° C 77% 1005 hPa - - - -
1788245627 16.67° C 77% 1005 hPa - - - -
1788245025 16.67° C 77% 1005 hPa - - - -
1788244428 18.89° C 68% 1005 hPa - - - -
1788243823 18.89° C 68% 1005 hPa - - - -
1788243225 18.89° C 68% 1005 hPa - - - -
1788242626 18.89° C 72% 1004 hPa - - - -
1788242023 18.89° C 72% 1004 hPa - - - -
1788241431 18.89° C 72% 1004 hPa - - - -
1788240826 17.78° C 82% 1003 hPa - - - -
1788240223 17.78° C 82% 1003 hPa - - - -
1788239622 17.78° C 82% 1003 hPa - - - -
1788239025 16.67° C 82% 1003 hPa - - - -
1788238424 16.67° C 82% 1003 hPa - - - -
1788237829 16.67° C 82% 1003 hPa - - - -
1788237239 16.67° C 82% 1003 hPa - - - -

* Rain since midnight (hover to see other rain measurements)
** Current wind speed in m/s (hover to see current wind gust speed)